• Processing (Info)

  • MPEC 2020-B298 : 2020 BO13

    The following Minor Planet Electronic Circular may be linked-to from your own Web pages, but must not otherwise be redistributed electronically.

    A form allowing access to any MPEC is at the bottom of this page.


    Read MPEC 2020-B297 Read MPEC 2020-B299


    M.P.E.C. 2020-B298                             Issued 2020 January 31, 00:44 UT
    
         The Minor Planet Electronic Circulars contain information on unusual
             minor planets and routine data on comets.  They are published
        on behalf of Division F of the International Astronomical Union by the
              Minor Planet Center, Smithsonian Astrophysical Observatory,
                              Cambridge, MA 02138, U.S.A.
    
                 Prepared using the Tamkin Foundation Computer Network
    
                                  MPC@CFA.HARVARD.EDU
                URL https://www.minorplanetcenter.net/    ISSN 1523-6714
    
                                    2020 BO13                                
    
    
    Observations:
         K20B13O* C2020 01 26.47549108 24 43.187+47 38 42.12         22.38wUEB298F51
         K20B13O  C2020 01 26.48790208 24 41.616+47 38 50.73         22.34wUEB298F51
         K20B13O  C2020 01 26.50028808 24 40.051+47 38 59.11         22.60wUEB298F51
         K20B13O KC2020 01 27.16606908 23 22.58 +47 46 27.6          22.0 VuEB298H21
         K20B13O KC2020 01 27.17145608 23 21.95 +47 46 31.4          22.0 VuEB298H21
         K20B13O KC2020 01 27.17897408 23 21.00 +47 46 36.4          22.1 VuEB298H21
         K20B13O KC2020 01 27.18405508 23 20.38 +47 46 39.6          22.1 VuEB298H21
         K20B13O KC2020 01 27.18912 08 23 20.20 +47 46 43.7          22.8 RoEB298291
         K20B13O KC2020 01 27.20944 08 23 17.69 +47 46 57.9          22.4 RoEB298291
         K20B13O KC2020 01 27.22980 08 23 15.17 +47 47 12.6          22.9 RoEB298291
         K20B13O  C2020 01 27.35408108 23 00.680+47 48 35.93         22.2 GVEB298F51
         K20B13O  C2020 01 27.36692408 22 59.070+47 48 44.72         22.0 GVEB298F51
         K20B13O  C2020 01 28.38571 08 21 00.276+47 59 20.32         22.6 wUEB298F51
         K20B13O  C2020 01 28.38571308 21 00.282+47 59 20.32         22.5 GVEB298F51
         K20B13O  C2020 01 28.39806508 20 58.738+47 59 27.74         22.4 GVEB298F51
         K20B13O  C2020 01 28.39807 08 20 58.739+47 59 27.67         22.5 wUEB298F51
         K20B13O  C2020 01 28.41042808 20 57.208+47 59 35.38         22.4 GVEB298F51
         K20B13O  C2020 01 28.41043 08 20 57.207+47 59 35.37         22.4 wUEB298F51
         K20B13O  C2020 01 28.42281808 20 55.663+47 59 42.64         22.8 GVEB298F51
         K20B13O  C2020 01 28.42282 08 20 55.664+47 59 42.68         22.8 wUEB298F51
    
    Observer details:
    291 LPL/Spacewatch II.  Observer M. J. Brucker.  1.8-m f/2.7 reflector + CCD.
    F51 Pan-STARRS 1, Haleakala.  Observers J. Bulger, T. Lowe, A. Schultz, M. 
       Willman, K. Chambers.  Measurers K. Chambers, S. Chastel, T. de Boer, L. 
       Denneau, J. Fairlamb, H. Flewelling, M. Huber, C.-C. Lin, E. Magnier, Y. 
       Ramanjooloo, R. Wainscoat, R. Weryk.  1.8-m Ritchey-Chretien + CCD.
    H21 Astronomical Research Observatory, Westfield.  Observer R. Holmes.  
        Measurers S. Foglia, L. Buzzi, T. Linder, R. Holmes.  0.81-m f/4.0 
       astrograph + CCD.
    
    Orbital elements:
    2020 BO13                                                Earth MOID = 0.2854 AU
    Epoch 2020 May 31.0 TT = JDT 2459000.5                  Bell
    M 150.99552              (2000.0)            P               Q
    n   0.53563089     Peri.  297.92731     +0.92575561     -0.28244514
    a   1.5016163      Node    79.39563     +0.36803875     +0.82558719
    e   0.1967653      Incl.   14.81903     -0.08674117     +0.48849825
    P   1.84           H   21.7           G   0.15           U   8
    Residuals in seconds of arc
    200126 F51  0.0   0.1-    200127 291  0.3-  0.2+    200128 F51  0.0   0.1-
    200126 F51  0.0   0.1+    200127 291  0.3-  0.2+    200128 F51  0.0   0.1-
    200126 F51  0.0   0.1+    200127 291  0.2-  0.8+    200128 F51  0.0   0.1+
    200127 H21  0.3-  0.3-    200127 F51  0.1+  0.0     200128 F51  0.0   0.1+
    200127 H21  0.1+  0.2-    200127 F51  0.1+  0.0     200128 F51  0.1-  0.1-
    200127 H21  0.1-  0.4-    200128 F51  0.0   0.0     200128 F51  0.0   0.0
    200127 H21  0.0   0.7-    200128 F51  0.1+  0.0
    
    Ephemeris:
    2020 BO13                a,e,i = 1.50, 0.20, 15                  q = 1.2062
    Date    TT    R. A. (2000) Decl.     Delta      r    Elong.  Phase     V
    2020 01 01    09 07 27.5 +38 13 41   0.5353  1.4567   145.6    22.4    22.2
    ...
    2020 01 16    08 45 24.2 +44 45 08   0.5525  1.4986   153.6    17.0    22.2
    ...
    2020 01 24    08 29 39.4 +47 06 46   0.5787  1.5206   152.3    17.5    22.3
    ...
    2020 01 30    08 17 55.9 +48 14 03   0.6059  1.5368   149.1    19.2    22.5
    2020 01 31    08 16 04.7 +48 22 04   0.6110  1.5395   148.5    19.5    22.6
    2020 02 01    08 14 15.9 +48 29 13   0.6163  1.5422   147.8    19.9    22.6
    ...
    2020 02 07    08 04 28.3 +48 54 49   0.6514  1.5580   143.4    22.2    22.8
    ...
    2020 02 15    07 55 00.1 +48 49 54   0.7059  1.5786   136.9    25.3    23.1
    ...
    2020 03 01    07 49 36.0 +47 19 48   0.8277  1.6154   125.1    30.1    23.6
    
    A. U. Tomatic                (C) Copyright 2020 MPC           M.P.E.C. 2020-B298
    


    Read MPEC 2020-B297 Read MPEC 2020-B299


    MPEC number:

    Enter an MPEC number in one of the following forms:

    • 1997-B01 (the full form)
    • J97B01 (the packed version of the full form)
    • B01 (the abbreviated form)